Location: Petruro
(41.0333°N, 14.7833°E)
Time: 14:51:27
(UTC+00:00)

ARGOS Delta rocket - Pass Details

Date: 20 June 2021
Orbit: 635 x 837 km, 96.5° (Epoch: 30 July)

Event Time Altitude Azimuth Distance (km) Brightness Sun altitude
Rises 00:37:09 0° 9° (N) 3,394 8.7 -21.9°
Reaches altitude 10° 00:39:32 10° 8° (N) 2,460 7.7 -21.7°
Maximum altitude 00:45:02 81° 282° (WNW) 849 4.1 -21.3°
Enters shadow 00:46:50 44° 202° (SSW) 1,131 4.4 -21.1°
